CLUSTER II-FM6 (SALSA) (26411 NORAD) Tracking and Keplerian Element Data

This shows tracking and keplerian element data for the satellite.

Feedback or suggestion? Click here.




ElementValue
Catalog26411
NameCLUSTER II-FM6 (SALSA)
Epoch Orbit1947
Epoch Day232.26624123
Epoch Year2018
RAAN337.7376
Inclination130.1836
Eccentricity0.4991882
Argument of Perigee171.8294
Mean Anonmoly359.4495
Mean Motion0.4412905
Decay Rate-4.56E-06
L11 26411U 00041B 18232.26624123 -.00000456 00000-0 00000+0 0 9996
L22 26411 130.1836 337.7376 4991882 171.8294 359.4495 0.44129050 19472

Live tracking and technical data element details for CLUSTER II-FM6 (SALSA) (NORAD 26411). CLUSTER II-FM6 (SALSA) can be tracked NOW for your location showing map with azimuth and elevation plus other details from your city location.

Track the satellite on the map from your city or location and see movement details for azimuth, elevation, latitude, longitude, range, height, and movement on the map or in text.







IsCatalogInMostPopularTable: catalog: 26411, numindb: 40
Update: records affected: 1



GetName: 26411 CLUSTER II-FM6 (SALSA)

Hit Count: updated at: Mon, 20 Aug 2018 00:42:36 GMT